DW0051 Weather Reports


time (UTC)temp
F
wind
direction
speed
knots
gust
knots
rain 1hr
in
rain 24hr
in
rain mn
in
humidity
%
barometer
mb
20260505235517 63 244 0.0 4.3 0.00 0.00 0.00 71 1007.8
20260505234516 63 0.0 2.6 0.00 0.00 0.00 70 1007.8
20260505233536 63 225 0.9 2.6 0.00 0.00 0.00 70 1007.7
20260505232516 62 294 0.0 2.6 0.00 0.00 0.00 71 1007.5
20260505231516 62 0.0 0.0 0.00 0.00 0.00 71 1007.4
20260505230516 61 0.0 0.0 0.00 0.00 0.00 72 1007.2
20260505225517 61 0.0 0.0 0.00 0.00 0.00 72 1006.9
20260505224516 61 0.0 0.0 0.00 0.00 0.00 71 1006.7
20260505223516 62 0.0 0.0 0.00 0.00 0.00 70 1006.4
20260505222516 62 0.0 0.0 0.00 0.00 0.00 69 1006.3
20260505221516 63 0.0 0.0 0.00 0.00 0.00 67 1006.3
20260505220536 64 0.0 0.0 0.00 0.00 0.00 66 1006.3
20260505215536 64 229 0.0 0.9 0.00 0.00 0.00 64 1006.3
20260505214516 65 0.0 0.0 0.00 0.00 0.00 63 1006.2
20260505213536 65 0.0 2.6 0.00 0.00 0.00 62 1006.2
20260505212515 65 203 1.7 6.1 0.00 0.00 0.00 62 1006.0
20260505211516 65 210 0.0 1.7 0.00 0.00 0.00 62 1006.0
20260505210515 64 182 0.9 6.1 0.00 0.00 0.00 63 1005.9
20260505205515 62 225 0.0 6.1 0.00 0.00 0.00 66 1005.9
20260505204516 60 0.0 0.0 0.00 0.00 0.00 68 1005.7
20260505203536 60 0.0 0.0 0.00 0.00 0.00 70 1005.6
20260505202518 60 0.0 0.0 0.00 0.00 0.00 70 1005.4
20260505201518 60 0.0 0.0 0.00 0.00 0.00 69 1005.0
20260505200518 61 0.0 0.0 0.00 0.00 0.00 68 1004.8
20260505195518 61 0.0 0.0 0.00 0.00 0.00 66 1004.6
20260505194558 62 0.0 0.0 0.00 0.00 0.00 66 1004.6
20260505193518 62 0.0 0.0 0.00 0.00 0.00 65 1004.5
20260505192538 63 0.0 0.0 0.00 0.00 0.00 63 1004.5
20260505191518 64 0.0 0.0 0.00 0.00 0.00 62 1004.4
20260505190538 65 0.0 0.0 0.00 0.00 0.00 61 1004.3
20260505185558 66 0.0 0.0 0.00 0.00 0.00 59 1004.3
20260505184538 67 0.0 0.0 0.00 0.00 0.00 57 1004.3
20260505183518 68 87 0.0 0.9 0.00 0.00 0.00 55 1004.1
20260505182558 69 0.0 0.0 0.00 0.00 0.00 53 1004.1
20260505181539 69 0.0 0.9 0.00 0.00 0.00 53 1004.1
20260505180517 70 0.0 0.0 0.00 0.00 0.00 51 1004.1
20260505175518 71 0.0 0.0 0.00 0.00 0.00 50 1004.2
20260505174518 72 0.0 0.0 0.00 0.00 0.00 48 1004.0
20260505173517 73 94 2.6 5.2 0.00 0.00 0.00 47 1004.1
20260505172518 73 139 0.9 2.6 0.00 0.00 0.00 46 1004.1
20260505171518 74 159 0.0 3.5 0.00 0.00 0.00 45 1004.0
20260505170537 75 73 0.0 1.7 0.00 0.00 0.00 44 1004.2
20260505165558 75 195 0.9 2.6 0.00 0.00 0.00 44 1004.1
20260505164517 76 208 2.6 7.8 0.00 0.00 0.00 44 1004.1
20260505163517 76 247 0.9 9.6 0.00 0.00 0.00 42 1004.2
20260505162518 76 231 2.6 10.4 0.00 0.00 0.00 42 1004.3
20260505161518 76 237 1.7 7.0 0.00 0.00 0.00 41 1004.5
20260505160517 76 0.0 6.1 0.00 0.00 0.00 41 1004.7
20260505152517 79 180 1.7 4.3 0.00 0.00 0.00 35 1004.7
20260505151537 80 186 0.9 7.8 0.00 0.00 0.00 34 1004.6
20260505150538 80 212 0.0 2.6 0.00 0.00 0.00 34 1004.6
20260505140518 82 228 2.6 8.7 0.00 0.00 0.00 29 1004.8
20260505124518 84 57 3.5 6.1 0.00 0.00 0.00 28 1005.7
20260505123517 84 90 0.9 8.7 0.00 0.00 0.00 29 1005.8
20260505122516 84 47 0.0 4.3 0.00 0.00 0.00 28 1006.0
20260505121516 83 172 0.9 3.5 0.00 0.00 0.00 30 1006.1
20260505120516 82 126 3.5 6.1 0.00 0.00 0.00 33 1006.4
20260505115516 82 73 1.7 7.8 0.00 0.00 0.00 36 1006.4
20260505114516 81 171 3.5 11.3 0.00 0.00 0.00 37 1006.6
20260505113517 80 89 0.0 9.6 0.00 0.00 0.00 40 1006.8
20260505112537 79 54 3.5 8.7 0.00 0.00 0.00 40 1007.0
20260505111517 80 64 0.9 4.3 0.00 0.00 0.00 42 1007.1
20260505110517 79 0.0 7.8 0.00 0.00 0.00 43 1007.3
20260505101516 76 58 1.7 7.0 0.00 0.00 0.00 45 1008.3
20260505095516 75 56 4.3 8.7 0.00 0.00 0.00 43 1008.4
20260505094516 76 66 2.6 6.1 0.00 0.00 0.00 44 1008.6
20260505093516 75 64 0.9 4.3 0.00 0.00 0.00 44 1008.6
20260505092517 75 76 0.0 6.1 0.00 0.00 0.00 45 1008.8
20260505091516 75 92 0.0 6.1 0.00 0.00 0.00 46 1008.8
20260505090516 75 0.0 1.7 0.00 0.00 0.00 47 1008.9
20260505085516 76 36 0.9 5.2 0.00 0.00 0.00 47 1009.0
20260505084516 75 0.0 2.6 0.00 0.00 0.00 48 1009.0
20260505083516 74 58 0.0 2.6 0.00 0.00 0.00 49 1009.0
20260505082517 76 71 1.7 5.2 0.00 0.00 0.00 46 1009.1
20260505081517 75 0.0 1.7 0.00 0.00 0.00 46 1009.2
20260505080536 73 0.0 0.0 0.00 0.00 0.00 48 1009.4
20260505075516 73 0.0 0.0 0.00 0.00 0.00 49 1009.5
20260505074516 73 0.0 0.0 0.00 0.00 0.00 47 1009.4
20260505073516 72 0.0 0.0 0.00 0.00 0.00 49 1009.4
20260505072517 70 0.0 0.0 0.00 0.00 0.00 51 1009.6
20260505071516 70 0.0 0.0 0.00 0.00 0.00 54 1009.7
20260505070516 69 0.0 0.0 0.00 0.00 0.00 54 1009.7
20260505065536 67 0.0 0.0 0.00 0.00 0.00 58 1009.8
20260505064516 66 0.0 0.0 0.00 0.00 0.00 59 1009.7
20260505063516 63 0.0 0.0 0.00 0.00 0.00 65 1009.7
20260505062516 60 0.0 0.0 0.00 0.00 0.00 70 1009.8
20260505061516 59 0.0 0.0 0.00 0.00 0.00 72 1009.8
20260505060537 58 0.0 0.0 0.00 0.00 0.00 74 1009.8
20260505055536 58 0.0 0.0 0.00 0.00 0.00 74 1009.7
20260505054536 57 0.0 0.0 0.00 0.00 0.00 77 1009.8
20260505053517 56 0.0 0.0 0.00 0.00 0.00 77 1009.7
20260505052558 56 0.0 0.0 0.00 0.00 0.00 78 1009.8
20260505051518 55 0.0 0.0 0.00 0.00 0.00 80 1009.7
20260505050540 54 0.0 0.0 0.00 0.00 0.00 80 1009.6
20260505041515 50 0.0 0.0 0.00 0.00 0.00 85 1009.4
20260505040516 50 0.0 0.0 0.00 0.00 0.00 84 1009.5
20260505035515 50 0.0 0.0 0.00 0.00 0.00 84 1009.5
20260505034516 50 0.0 0.0 0.00 0.00 0.00 84 1009.6
20260505033515 50 0.0 0.0 0.00 0.00 0.00 84 1009.5
20260505032515 50 0.0 0.0 0.00 0.00 0.00 84 1009.5
20260505031515 50 0.0 0.0 0.00 0.00 0.00 83 1009.5
20260505030515 50 0.0 0.0 0.00 0.00 0.00 83 1009.5
20260505025516 51 0.0 0.0 0.00 0.00 0.00 83 1009.6
20260505024535 51 0.0 0.0 0.00 0.00 0.00 82 1009.7
20260505023515 51 0.0 0.0 0.00 0.00 0.00 82 1009.7
20260505022515 51 0.0 0.0 0.00 0.00 0.00 81 1009.7
20260505021535 52 0.0 0.0 0.00 0.00 0.00 81 1009.8
20260505020515 52 0.0 0.0 0.00 0.00 0.00 80 1009.9
20260505015536 52 0.0 0.0 0.00 0.00 0.00 79 1010.1
20260505014515 52 0.0 0.0 0.00 0.00 0.00 79 1010.1
20260505013515 53 0.0 0.0 0.00 0.00 0.00 78 1010.1
20260505012535 53 0.0 0.0 0.00 0.00 0.00 77 1010.2
20260505011515 53 0.0 0.0 0.00 0.00 0.00 76 1010.2
20260505010515 54 0.0 0.0 0.00 0.00 0.00 76 1010.2
20260505005515 54 0.0 0.0 0.00 0.00 0.00 75 1010.4
20260505004516 55 0.0 0.0 0.00 0.00 0.00 74 1010.2
20260505003515 55 0.0 0.0 0.00 0.00 0.00 74 1010.2
20260505002515 55 0.0 0.0 0.00 0.00 0.00 73 1010.2
20260505001515 55 0.0 0.0 0.00 0.00 0.00 72 1010.3
20260505000515 56 0.0 0.0 0.00 0.00 0.00 72 1010.3